Location: Little Baddow
(51.7333°N, 0.5667°E)
Time: 06:03:26
(UTC+00:00)

Okean 1 Rocket - Pass Details

Date: 08 November 2025
Orbit: 599 x 628 km, 82.5° (Epoch: 11 December)

Event Time Altitude Azimuth Distance (km) Brightness Sun altitude
Rises 06:04:11 0° 353° (N) 2,892 6.3 -9.6°
Reaches altitude 10° 06:06:31 10° 0° (N) 1,977 5.5 -9.2°
Maximum altitude 06:10:43 45° 74° (ENE) 840 4.2 -8.6°
Drops below altitude 10° 06:14:51 10° 147° (SSE) 1,947 6.4 -8.0°
Sets 06:17:07 0° 154° (SSE) 2,842 7.2 -7.7°
